Philadelphia, PA

3:36 PM EST on February 11, 2016 (GMT -0500)
Northeast Philadelphia

Weather History for KPNE - May, 2013

Change the Weather History Date:

Friday, May 17, 2013

  Actual Average Record
Temperature  
Mean Temperature 63 °F -  
Max Temperature 73 °F 69 °F 86 °F (2015)
Min Temperature 53 °F 49 °F 43 °F (2003)
Degree Days  
Heating Degree Days 2    
Growing Degree Days 13 (Base 50)    
Moisture  
Dew Point 42 °F    
Average Humidity 44    
Maximum Humidity 64    
Minimum Humidity 26    
Precipitation  
Precipitation 0.00 in - - ()
Sea Level Pressure  
Sea Level Pressure 30.08 in    
Wind  
Wind Speed 6 mph (North)    
Max Wind Speed 10 mph    
Max Gust Speed 17 mph    
Visibility 10 miles    
Events      
Averages and records for this station are not official NWS values.
T = Trace of Precipitation, MM = Missing Value Source: NWS Daily Summary

Daily Weather History Graph

Daily Weather History Graph

Search for Another Location

Airport or City:

Trip Planner

Search our weather history database for the weather conditions in past years. The results will help you decide how hot, cold, wet, or windy it might be!

Date:

Astronomy

May. 17, 2013 Rise Set
Actual Time 5:42 AM EDT 8:10 PM EDT
Civil Twilight 5:11 AM EDT 8:41 PM EDT
Nautical Twilight 4:33 AM EDT 9:20 PM EDT
Astronomical Twilight 3:50 AM EDT 10:03 PM EDT
Moon 12:12 PM EDT (5/17) 1:02 AM EDT (5/17)
Length of Visible Light 15h 30m
Length of Day
14h 28m
Waxing Crescent, 45% of the Moon is Illuminated
May 17
Waxing Crescent
May 18
First Quarter
May 25
Full
May 31
Last Quarter
Jun 8
New

Hourly Weather History & Observations

Time (EDT) Temp. Dew Point Humidity Pressure Visibility Wind Dir Wind Speed Gust Speed Precip Events Conditions
12:54 AM 66.0 °F 50.0 °F 56% 29.90 in 10.0 mi NNW 6.9 mph - N/A   Clear
1:54 AM 64.9 °F 45.0 °F 48% 29.91 in 10.0 mi NNW 9.2 mph - N/A   Clear
2:54 AM 63.0 °F 41.0 °F 45% 29.93 in 10.0 mi NNW 5.8 mph - N/A   Clear
3:54 AM 57.0 °F 42.1 °F 57% 29.96 in 10.0 mi North 3.5 mph - N/A   Clear
4:54 AM 53.1 °F 41.0 °F 64% 29.98 in 10.0 mi North 5.8 mph - N/A   Clear
5:54 AM 55.9 °F 39.9 °F 55% 30.02 in 10.0 mi NNW 4.6 mph - N/A   Clear
6:54 AM 59.0 °F 41.0 °F 51% 30.05 in 10.0 mi Calm Calm - N/A   Clear
7:54 AM 62.6 °F 42.8 °F 48% 30.08 in 10.0 mi NNW 8.1 mph - N/A   Clear
8:54 AM 63.0 °F 41.0 °F 45% 30.10 in 10.0 mi North 10.4 mph - N/A   Clear
9:54 AM 64.0 °F 43.0 °F 46% 30.11 in 10.0 mi NNW 9.2 mph - N/A   Clear
10:54 AM 66.0 °F 43.0 °F 43% 30.12 in 10.0 mi NNW 8.1 mph 17.3 mph N/A   Clear
11:54 AM 68.0 °F 45.0 °F 43% 30.12 in 10.0 mi North 9.2 mph - N/A   Clear
12:54 PM 69.1 °F 44.1 °F 40% 30.12 in 10.0 mi North 10.4 mph - N/A   Clear
1:54 PM 71.1 °F 44.1 °F 38% 30.12 in 10.0 mi Variable 3.5 mph - N/A   Clear
2:54 PM 71.6 °F 42.8 °F 35% 30.11 in 10.0 mi North 5.8 mph - N/A   Clear
3:54 PM 72.0 °F 43.0 °F 35% 30.10 in 10.0 mi NW 6.9 mph - N/A   Clear
4:54 PM 73.9 °F 41.0 °F 30% 30.10 in 10.0 mi NNE 5.8 mph - N/A   Clear
5:54 PM 73.9 °F 37.0 °F 26% 30.11 in 10.0 mi NNW 9.2 mph - N/A   Clear
6:54 PM 73.0 °F 37.9 °F 28% 30.12 in 10.0 mi NNW 5.8 mph - N/A   Clear
7:54 PM 68.0 °F 37.9 °F 33% 30.14 in 10.0 mi North 5.8 mph - N/A   Clear
8:54 PM 64.9 °F 37.9 °F 37% 30.16 in 10.0 mi Calm Calm - N/A   Clear
9:54 PM 62.1 °F 45.0 °F 53% 30.19 in 10.0 mi SE 3.5 mph - N/A   Clear
10:54 PM 61.0 °F 43.0 °F 52% 30.20 in 10.0 mi Calm Calm - N/A   Clear
11:54 PM 59.0 °F 42.1 °F 53% 30.21 in 10.0 mi Calm Calm - N/A   Scattered Clouds